Joplin, MO

6:47 AM CST on November 15, 2019 (GMT -0600)
Joplin Regional

Weather History for KJLN - September, 2019

Change the Weather History Date:

Wednesday, September 11, 2019

  Actual Average Record
Temperature  
Mean Temperature 80 °F 73 °F  
Max Temperature 90 °F 84 °F 100 °F (2000)
Min Temperature 73 °F 61 °F 44 °F (1968)
Degree Days  
Heating Degree Days 0 0  
Month to date heating degree days 0  
Since 1 July heating degree days 1  
Cooling Degree Days 16 8  
Month to date cooling degree days 110  
Year to date cooling degree days 1537  
Growing Degree Days 30 (Base 50)    
Moisture  
Dew Point 69 °F    
Average Humidity 69    
Maximum Humidity 90    
Minimum Humidity 51    
Precipitation  
Precipitation 0.00 in 0.17 in 1.20 in (1975)
Month to date precipitation 1.76  
Year to date precipitation 32.73  
Sea Level Pressure  
Sea Level Pressure 30.06 in    
Wind  
Wind Speed 8 mph ()    
Max Wind Speed 16 mph    
Max Gust Speed 25 mph    
Visibility 9.5 miles    
Events      
T = Trace of Precipitation, MM = Missing Value Source: Averaged Metar Reports

Daily Weather History Graph

Daily Weather History Graph

Search for Another Location

Airport or City:

Astronomy

Sep. 11, 2019 Rise Set
Actual Time 6:56 AM CDT 7:32 PM CDT
Civil Twilight 6:30 AM CDT 7:58 PM CDT
Nautical Twilight 5:59 AM CDT 8:29 PM CDT
Astronomical Twilight 5:27 AM CDT 9:00 PM CDT
Moon 6:40 PM CDT (9/11) 4:25 AM CDT (9/11)
Length of Visible Light 13h 27m
Length of Day
12h 35m
Waxing Gibbous, 95% of the Moon is Illuminated
Sep 11
Waxing Gibbous
Sep 13
Full
Sep 21
Last Quarter
Sep 28
New
Oct 5
First Quarter

Hourly Weather History & Observations

Time (CDT) Temp. Heat Index Dew Point Humidity Pressure Visibility Wind Dir Wind Speed Gust Speed Precip Events Conditions
12:53 AM 77.0 °F - 69.1 °F 76% 30.04 in 10.0 mi SSE 10.4 mph - N/A   Clear
1:53 AM 75.9 °F - 69.1 °F 79% 30.06 in 10.0 mi South 8.1 mph - N/A   Clear
2:53 AM 75.9 °F - 69.1 °F 79% 30.06 in 10.0 mi SSE 8.1 mph - N/A   Clear
3:53 AM 73.9 °F - 69.1 °F 85% 30.07 in 9.0 mi SE 4.6 mph - N/A   Clear
4:53 AM 73.9 °F - 70.0 °F 87% 30.08 in 8.0 mi SE 6.9 mph - N/A   Clear
5:53 AM 73.0 °F - 70.0 °F 90% 30.09 in 7.0 mi SSE 6.9 mph - N/A   Clear
7:53 AM 75.0 °F - 70.0 °F 84% 30.11 in 7.0 mi South 8.1 mph - N/A   Clear
8:53 AM 79.0 °F - 71.1 °F 77% 30.12 in 8.0 mi South 11.5 mph - N/A   Clear
10:53 AM 84.0 °F 88.4 °F 70.0 °F 63% 30.11 in 10.0 mi SSW 10.4 mph - N/A   Clear
11:53 AM 86.0 °F 91.5 °F 71.1 °F 61% 30.10 in 10.0 mi SW 11.5 mph 24.2 mph N/A   Clear
12:53 PM 87.1 °F 92.0 °F 70.0 °F 57% 30.09 in 10.0 mi South 13.8 mph 25.3 mph N/A   Partly Cloudy
1:53 PM 88.0 °F 92.1 °F 69.1 °F 53% 30.08 in 10.0 mi SSW 16.1 mph 25.3 mph N/A   Clear
2:53 PM 88.0 °F 92.9 °F 70.0 °F 55% 30.06 in 10.0 mi SSW 12.7 mph 23.0 mph N/A   Scattered Clouds
3:53 PM 87.1 °F 91.3 °F 69.1 °F 55% 30.05 in 10.0 mi South 13.8 mph 21.9 mph N/A   Mostly Cloudy
4:53 PM 88.0 °F 91.4 °F 68.0 °F 51% 30.03 in 10.0 mi SSW 12.7 mph - N/A   Partly Cloudy
5:53 PM 86.0 °F 90.1 °F 69.1 °F 57% 30.02 in 10.0 mi South 10.4 mph - N/A   Clear
6:53 PM 84.0 °F 87.8 °F 69.1 °F 61% 30.01 in 10.0 mi South 8.1 mph - N/A   Clear
7:53 PM 80.1 °F 82.9 °F 69.1 °F 69% 30.01 in 10.0 mi SSE 5.8 mph - N/A   Clear
8:53 PM 79.0 °F - 69.1 °F 72% 30.02 in 10.0 mi SSE 5.8 mph - N/A   Clear
9:53 PM 79.0 °F - 69.1 °F 72% 30.02 in 10.0 mi SSE 6.9 mph - N/A   Clear
10:53 PM 78.1 °F - 69.1 °F 74% 30.01 in 10.0 mi SSE 8.1 mph - N/A   Clear
11:53 PM 78.1 °F - 68.0 °F 71% 30.01 in 10.0 mi SSE 11.5 mph - N/A   Clear